Tracking 34408 objects as of 14-Jun-2026
HD Live streaming from Space Station
objects crossing your sky now

TVSAT 2

Track TVSAT 2 now!
TVSAT 2 is classified as:


NORAD ID: 20168
Int'l Code: 1989-062A
Perigee: 35,897.7 km
Apogee: 35,928.4 km
Inclination: 14.7 °
Period: 1,442.2 minutes
Semi major axis: 42284 km
RCS: 2.0976 m2 (large)
Launch date: August 8, 1989
Source: Germany (GER)
Launch site: FRENCH GUIANA (FRGUI)
Your satellite tracking list
Your tracking list is empty




NASA's NSSDC Master Catalog

Two Line Element Set (TLE):
1 20168U 89062A   26165.16155823  .00000091  00000-0  00000+0 0  9992
2 20168  14.6921 355.8102 0003633 180.4312 357.9314  0.99847739134477
Source of the keplerian elements: AFSPC